Location: Newark
(42.9858°N, 0.6717°E)
Time: 22:16:35
(UTC+00:00)

S-56A Canister/Altair - Pass Details

Date: 25 November 2019
Orbit: 633 x 2499 km, 38.9° (Epoch: 10 December)

Event Time Altitude Azimuth Distance (km) Brightness Sun altitude
Rises 20:20:42 0° 280° (W) 4,503 12.3 -42.3°
Reaches altitude 10° 20:24:39 10° 269° (W) 3,186 11.3 -43.0°
Enters shadow 20:28:21 22° 246° (WSW) 2,124 10.1 -43.7°
Maximum altitude 20:30:37 26° 216° (SW) 1,774 - -44.1°
Drops below altitude 10° 20:35:08 10° 160° (SSE) 2,349 - -44.9°
Sets 20:37:36 0° 147° (SSE) 3,123 - -45.3°
